TimeCST,TemperatureF,Dew PointF,Humidity,Sea Level PressureIn,VisibilityMPH,Wind Direction,Wind SpeedMPH,Gust SpeedMPH,PrecipitationIn,Events,Conditions,WindDirDegrees,DateUTC
12:55 AM,48.6,44.8,87,30.26,10.0,North,8.1,-,N/A,,Clear,360,2012-11-19 06:55:00
1:55 AM,47.8,44.2,87,30.26,10.0,North,6.9,-,N/A,,Clear,10,2012-11-19 07:55:00
2:55 AM,49.3,45.5,87,30.25,10.0,NE,5.8,-,N/A,,Clear,50,2012-11-19 08:55:00
3:55 AM,47.8,44.2,87,30.26,10.0,NNE,3.5,-,N/A,,Clear,20,2012-11-19 09:55:00
4:55 AM,43.9,42.3,94,30.25,10.0,NE,4.6,-,N/A,,Clear,40,2012-11-19 10:55:00
5:55 AM,44.6,43.2,95,30.26,10.0,North,4.6,-,N/A,,Clear,10,2012-11-19 11:55:00
6:55 AM,45.5,44.4,96,30.26,10.0,NNE,4.6,-,N/A,,Clear,20,2012-11-19 12:55:00
7:55 AM,54.0,48.0,80,30.27,10.0,NE,5.8,-,N/A,,Clear,40,2012-11-19 13:55:00
8:30 AM,57.2,48.2,72,30.26,10.0,ENE,10.4,-,N/A,,Light Drizzle,70,2012-11-19 14:30:00
8:39 AM,59.0,48.2,67,30.26,10.0,ENE,9.2,-,N/A,,Clear,70,2012-11-19 14:39:00
8:55 AM,59.9,49.1,67,30.26,10.0,ENE,8.1,-,0.00,,Clear,70,2012-11-19 14:55:00
9:55 AM,63.7,51.1,64,30.26,10.0,East,3.5,-,N/A,,Clear,100,2012-11-19 15:55:00
10:04 AM,64.4,51.8,64,30.26,10.0,Variable,4.6,-,N/A,Rain,Light Rain,0,2012-11-19 16:04:00
10:15 AM,66.2,51.8,60,30.26,10.0,ENE,4.6,-,N/A,,Clear,70,2012-11-19 16:15:00
10:23 AM,66.2,51.8,60,30.25,10.0,North,4.6,-,N/A,,Light Drizzle,10,2012-11-19 16:23:00
10:33 AM,66.2,51.8,60,30.25,10.0,Calm,Calm,-,N/A,,Clear,0,2012-11-19 16:33:00
10:40 AM,68.0,51.8,56,30.25,10.0,Calm,Calm,-,N/A,Rain,Light Rain,0,2012-11-19 16:40:00
10:55 AM,68.2,52.0,56,30.25,10.0,NE,3.5,-,0.00,,Light Drizzle,50,2012-11-19 16:55:00
10:58 AM,68.0,51.8,56,30.25,10.0,Variable,3.5,-,N/A,,Clear,0,2012-11-19 16:58:00
11:04 AM,68.0,51.8,56,30.25,10.0,Variable,4.6,-,N/A,Rain,Light Rain,0,2012-11-19 17:04:00
11:18 AM,66.2,53.6,64,30.24,10.0,SSW,3.5,-,N/A,,Clear,200,2012-11-19 17:18:00
11:20 AM,68.0,53.6,60,30.24,10.0,Variable,3.5,-,N/A,Rain,Light Rain,0,2012-11-19 17:20:00
11:25 AM,68.0,53.6,60,30.24,10.0,SSW,4.6,-,N/A,,Clear,200,2012-11-19 17:25:00
11:28 AM,69.8,55.4,60,30.24,10.0,SSW,5.8,-,N/A,Rain,Light Rain,200,2012-11-19 17:28:00
11:55 AM,68.4,55.6,64,30.23,10.0,SSW,6.9,-,0.00,,Light Drizzle,210,2012-11-19 17:55:00
12:00 PM,68.0,55.4,64,30.22,10.0,SW,6.9,-,N/A,,Partly Cloudy,220,2012-11-19 18:00:00
12:11 PM,68.0,55.4,64,30.22,10.0,SW,6.9,-,N/A,Rain,Light Rain,230,2012-11-19 18:11:00
12:22 PM,68.0,55.4,64,30.22,10.0,SW,8.1,-,N/A,,Partly Cloudy,220,2012-11-19 18:22:00
12:55 PM,67.5,55.6,66,30.20,10.0,WSW,10.4,-,0.00,,Clear,240,2012-11-19 18:55:00
1:55 PM,68.4,56.5,66,30.18,10.0,West,5.8,-,N/A,,Clear,260,2012-11-19 19:55:00
2:01 PM,68.0,57.2,68,30.18,10.0,Variable,3.5,-,N/A,,Light Drizzle,0,2012-11-19 20:01:00
2:20 PM,71.6,51.8,50,30.17,10.0,Variable,6.9,-,N/A,,Clear,0,2012-11-19 20:20:00
2:32 PM,71.6,51.8,50,30.16,10.0,North,11.5,18.4,N/A,,Light Drizzle,10,2012-11-19 20:32:00
2:37 PM,71.6,51.8,50,30.17,10.0,North,6.9,18.4,N/A,,Clear,350,2012-11-19 20:37:00
2:55 PM,70.9,51.1,49,30.17,10.0,NNW,10.4,-,0.00,,Clear,330,2012-11-19 20:55:00
3:55 PM,68.9,49.8,51,30.16,10.0,North,11.5,-,N/A,,Clear,10,2012-11-19 21:55:00
4:35 PM,64.4,50.0,59,30.16,10.0,NNE,8.1,-,N/A,,Light Drizzle,20,2012-11-19 22:35:00
4:43 PM,64.4,48.2,56,30.16,10.0,NNE,6.9,-,N/A,,Clear,20,2012-11-19 22:43:00
4:55 PM,62.4,49.1,62,30.17,10.0,NNE,5.8,-,0.00,,Clear,30,2012-11-19 22:55:00
4:56 PM,62.6,48.2,59,30.17,10.0,NNE,5.8,-,N/A,Rain,Light Rain,30,2012-11-19 22:56:00
5:06 PM,62.6,48.2,59,30.17,10.0,NNE,4.6,-,N/A,,Clear,20,2012-11-19 23:06:00
5:55 PM,57.2,49.8,76,30.17,10.0,NNE,3.5,-,0.00,,Clear,20,2012-11-19 23:55:00
6:55 PM,52.7,48.7,86,30.18,10.0,North,4.6,-,N/A,,Clear,360,2012-11-20 00:55:00
7:55 PM,50.0,47.7,92,30.19,10.0,North,6.9,-,N/A,,Clear,360,2012-11-20 01:55:00
8:55 PM,49.5,46.8,90,30.19,10.0,North,6.9,-,N/A,,Clear,360,2012-11-20 02:55:00
9:55 PM,51.1,47.1,86,30.18,10.0,North,6.9,-,N/A,,Clear,360,2012-11-20 03:55:00
10:55 PM,48.6,45.5,89,30.18,10.0,North,5.8,-,N/A,,Clear,10,2012-11-20 04:55:00
11:55 PM,46.4,44.4,93,30.17,10.0,North,5.8,-,N/A,,Clear,360,2012-11-20 05:55:00